Time,TemperatureF,DewpointF,PressureIn,WindDirection,WindDirectionDegrees,WindSpeedMPH,WindSpeedGustMPH,Humidity,HourlyPrecipIn,Conditions,Clouds,dailyrainin,SoftwareType,DateUTC
2013-05-29 00:02:00,63.0,62.0,29.78,NNW,327,0.0,3.0,97,0.00,,,1.90,,2013-05-29 05:02:00,
2013-05-29 00:12:00,63.0,62.0,29.78,NNW,327,0.0,3.0,97,0.00,,,1.90,,2013-05-29 05:12:00,
2013-05-29 00:22:00,59.0,58.0,29.79,East,80,0.0,2.0,97,0.00,,,1.90,,2013-05-29 05:22:00,
2013-05-29 00:32:00,59.0,58.0,29.79,ENE,68,0.0,0.0,98,0.00,,,1.90,,2013-05-29 05:32:00,
2013-05-29 00:42:00,59.0,58.0,29.79,ENE,68,0.0,0.0,98,0.00,,,1.90,,2013-05-29 05:42:00,
2013-05-29 00:52:00,59.0,58.0,29.79,ENE,70,0.0,0.0,98,0.00,,,1.90,,2013-05-29 05:52:00,
2013-05-29 01:01:00,58.0,57.0,29.79,ENE,62,0.0,0.0,98,0.00,,,1.90,,2013-05-29 06:01:00,
2013-05-29 01:11:00,58.0,57.0,29.79,ENE,62,0.0,0.0,98,0.00,,,1.90,,2013-05-29 06:11:00,
2013-05-29 01:21:00,58.0,58.0,29.79,SSE,152,0.0,0.0,99,0.00,,,1.90,,2013-05-29 06:21:00,
2013-05-29 01:31:00,59.0,59.0,29.78,SSE,153,0.0,0.0,99,0.00,,,1.90,,2013-05-29 06:31:00,
2013-05-29 01:42:00,59.0,59.0,29.78,SSE,153,0.0,0.0,99,0.00,,,1.90,,2013-05-29 06:42:00,
2013-05-29 01:52:00,59.0,59.0,29.77,SSE,155,0.0,0.0,99,0.00,,,1.90,,2013-05-29 06:52:00,
2013-05-29 02:01:00,58.0,58.0,29.77,SE,130,0.0,0.0,99,0.00,,,1.90,,2013-05-29 07:01:00,
2013-05-29 02:11:00,58.0,58.0,29.77,SE,130,0.0,0.0,99,0.00,,,1.90,,2013-05-29 07:11:00,
2013-05-29 02:21:00,58.0,58.0,29.77,SE,146,0.0,0.0,99,0.00,,,1.90,,2013-05-29 07:21:00,
2013-05-29 02:34:00,58.0,58.0,29.78,SSW,193,0.0,0.0,99,0.00,,,1.90,,2013-05-29 07:34:00,
2013-05-29 02:42:00,58.0,58.0,29.78,SSW,193,0.0,0.0,99,0.00,,,1.90,,2013-05-29 07:42:00,
2013-05-29 02:52:00,60.0,60.0,29.78,SSW,193,0.0,0.0,99,0.00,,,1.90,,2013-05-29 07:52:00,
2013-05-29 03:02:00,59.0,59.0,29.78,WNW,293,0.0,0.0,99,0.00,,,1.90,,2013-05-29 08:02:00,
2013-05-29 03:11:00,59.0,59.0,29.78,WNW,293,0.0,0.0,99,0.00,,,1.90,,2013-05-29 08:11:00,
2013-05-29 03:21:00,59.0,59.0,29.79,WNW,293,0.0,0.0,99,0.00,,,1.89,,2013-05-29 08:21:00,
2013-05-29 03:32:00,59.0,59.0,29.79,WNW,292,0.0,0.0,99,0.00,,,1.89,,2013-05-29 08:32:00,
2013-05-29 03:42:00,59.0,59.0,29.79,WNW,292,0.0,0.0,99,0.00,,,1.89,,2013-05-29 08:42:00,
2013-05-29 03:52:00,59.0,59.0,29.79,WNW,293,0.0,0.0,99,0.00,,,1.89,,2013-05-29 08:52:00,
2013-05-29 04:01:00,59.0,59.0,29.79,East,96,0.0,0.0,99,0.00,,,1.89,,2013-05-29 09:01:00,
2013-05-29 04:11:00,59.0,59.0,29.79,East,96,0.0,0.0,99,0.00,,,1.89,,2013-05-29 09:11:00,
2013-05-29 04:21:00,59.0,59.0,29.80,SSE,166,0.0,0.0,99,0.00,,,1.86,,2013-05-29 09:21:00,
2013-05-29 04:33:00,59.0,59.0,29.80,SSE,167,0.0,0.0,99,0.00,,,1.86,,2013-05-29 09:33:00,
2013-05-29 04:42:00,59.0,59.0,29.80,SSE,167,0.0,0.0,99,0.00,,,1.86,,2013-05-29 09:42:00,
2013-05-29 04:52:00,59.0,59.0,29.81,SSE,149,0.0,0.0,99,0.00,,,1.86,,2013-05-29 09:52:00,
2013-05-29 05:02:00,59.0,59.0,29.81,SSE,158,0.0,0.0,99,0.00,,,1.86,,2013-05-29 10:02:00,
2013-05-29 05:12:00,59.0,59.0,29.81,SSE,158,0.0,0.0,99,0.00,,,1.86,,2013-05-29 10:12:00,
2013-05-29 05:22:00,59.0,59.0,29.83,SSE,158,0.0,0.0,99,0.00,,,1.51,,2013-05-29 10:22:00,
2013-05-29 05:32:00,59.0,59.0,29.84,SE,125,0.0,0.0,99,0.00,,,1.51,,2013-05-29 10:32:00,
2013-05-29 05:42:00,59.0,59.0,29.84,SE,125,0.0,0.0,99,0.00,,,1.51,,2013-05-29 10:42:00,
2013-05-29 05:53:00,59.0,59.0,29.84,East,81,0.0,0.0,99,0.00,,,1.51,,2013-05-29 10:53:00,
2013-05-29 06:02:00,59.0,59.0,29.84,East,81,0.0,0.0,99,0.00,,,1.51,,2013-05-29 11:02:00,
2013-05-29 06:12:00,59.0,59.0,29.84,East,81,0.0,0.0,99,0.00,,,1.51,,2013-05-29 11:12:00,
2013-05-29 06:22:00,60.0,60.0,29.85,East,80,0.0,0.0,99,0.00,,,1.49,,2013-05-29 11:22:00,
2013-05-29 06:32:00,60.0,60.0,29.85,East,80,0.0,0.0,99,0.00,,,1.49,,2013-05-29 11:32:00,
2013-05-29 06:42:00,60.0,60.0,29.85,East,80,0.0,0.0,99,0.00,,,1.49,,2013-05-29 11:42:00,
2013-05-29 06:52:00,61.0,61.0,29.86,SE,145,0.0,0.0,99,0.00,,,1.49,,2013-05-29 11:52:00,
2013-05-29 07:01:00,61.0,61.0,29.86,SSE,150,0.0,0.0,99,0.00,,,1.49,,2013-05-29 12:01:00,
2013-05-29 07:11:00,61.0,61.0,29.86,SSE,150,0.0,0.0,99,0.00,,,1.49,,2013-05-29 12:11:00,
2013-05-29 07:21:00,61.0,61.0,29.87,SSE,149,0.0,0.0,99,0.00,,,1.16,,2013-05-29 12:21:00,
2013-05-29 07:32:00,61.0,61.0,29.86,SSE,149,0.0,0.0,99,0.00,,,1.16,,2013-05-29 12:32:00,
2013-05-29 07:42:00,61.0,61.0,29.86,SSE,149,0.0,0.0,99,0.00,,,1.16,,2013-05-29 12:42:00,
2013-05-29 07:52:00,62.0,62.0,29.87,SSE,149,0.0,0.0,99,0.00,,,1.16,,2013-05-29 12:52:00,
2013-05-29 08:02:00,62.0,62.0,29.86,ENE,68,0.0,0.0,100,0.00,,,1.16,,2013-05-29 13:02:00,
2013-05-29 08:11:00,62.0,62.0,29.86,ENE,68,0.0,0.0,100,0.00,,,1.16,,2013-05-29 13:11:00,
2013-05-29 08:21:00,62.0,62.0,29.87,ENE,75,0.0,0.0,99,0.00,,,0.40,,2013-05-29 13:21:00,
2013-05-29 08:32:00,63.0,63.0,29.87,NNE,20,0.0,0.0,99,0.00,,,0.40,,2013-05-29 13:32:00,
2013-05-29 08:42:00,63.0,63.0,29.87,NNE,20,0.0,0.0,99,0.00,,,0.40,,2013-05-29 13:42:00,
2013-05-29 08:53:00,64.0,64.0,29.89,SE,136,0.0,0.0,100,0.00,,,0.40,,2013-05-29 13:53:00,
2013-05-29 09:02:00,66.0,66.0,29.90,ENE,58,0.0,0.0,100,0.00,,,0.40,,2013-05-29 14:02:00,
2013-05-29 09:11:00,66.0,66.0,29.90,ENE,58,0.0,0.0,100,0.00,,,0.40,,2013-05-29 14:11:00,
2013-05-29 09:21:00,68.0,68.0,29.91,SW,235,0.0,1.0,100,0.00,,,0.32,,2013-05-29 14:21:00,
2013-05-29 09:32:00,69.0,68.0,29.91,WSW,239,0.0,6.0,98,0.00,,,0.32,,2013-05-29 14:32:00,
2013-05-29 09:41:00,69.0,68.0,29.91,WSW,239,0.0,6.0,98,0.00,,,0.32,,2013-05-29 14:41:00,
2013-05-29 09:52:00,70.0,68.0,29.91,SW,235,0.0,1.0,93,0.00,,,0.32,,2013-05-29 14:52:00,
2013-05-29 10:01:00,70.0,67.0,29.91,WSW,250,0.0,5.0,91,0.00,,,0.32,,2013-05-29 15:01:00,
2013-05-29 10:11:00,70.0,67.0,29.91,WSW,256,1.0,5.0,89,0.00,,,0.31,,2013-05-29 15:11:00,
2013-05-29 10:21:00,70.0,67.0,29.91,WSW,256,1.0,5.0,89,0.00,,,0.31,,2013-05-29 15:21:00,
2013-05-29 10:33:00,71.0,68.0,29.91,SSW,203,0.0,3.0,89,0.00,,,0.31,,2013-05-29 15:33:00,
2013-05-29 10:42:00,71.0,68.0,29.91,SSW,203,0.0,3.0,89,0.00,,,0.31,,2013-05-29 15:42:00,
2013-05-29 10:53:00,72.0,66.0,29.91,WSW,245,0.0,5.0,81,0.00,,,0.31,,2013-05-29 15:53:00,
2013-05-29 11:03:00,73.0,65.0,29.91,WSW,249,0.0,3.0,77,0.00,,,0.31,,2013-05-29 16:03:00,
2013-05-29 11:12:00,73.0,65.0,29.91,WSW,249,0.0,3.0,77,0.00,,,0.31,,2013-05-29 16:12:00,
2013-05-29 11:22:00,73.0,67.0,29.91,SW,228,0.0,1.0,81,0.00,,,0.31,,2013-05-29 16:22:00,
2013-05-29 11:32:00,74.0,67.0,29.91,SW,232,1.0,4.0,79,0.00,,,0.31,,2013-05-29 16:32:00,
2013-05-29 11:42:00,74.0,67.0,29.91,SW,232,1.0,4.0,79,0.00,,,0.31,,2013-05-29 16:42:00,
2013-05-29 11:52:00,75.0,67.0,29.91,SE,145,1.0,6.0,75,0.00,,,0.31,,2013-05-29 16:52:00,
2013-05-29 12:02:00,76.0,65.0,29.91,SSW,200,1.0,6.0,70,0.00,,,0.31,,2013-05-29 17:02:00,
2013-05-29 12:12:00,76.0,65.0,29.91,SSW,200,1.0,6.0,70,0.00,,,0.31,,2013-05-29 17:12:00,
2013-05-29 12:22:00,77.0,64.0,29.91,WSW,242,1.0,5.0,64,0.00,,,0.31,,2013-05-29 17:22:00,
2013-05-29 12:32:00,78.0,66.0,29.91,SW,236,1.0,8.0,66,0.00,,,0.31,,2013-05-29 17:32:00,
2013-05-29 12:42:00,78.0,66.0,29.91,SW,236,1.0,8.0,66,0.00,,,0.31,,2013-05-29 17:42:00,
2013-05-29 12:52:00,78.0,63.0,29.91,SW,215,0.0,5.0,61,0.00,,,0.31,,2013-05-29 17:52:00,
2013-05-29 13:01:00,78.0,64.0,29.91,WSW,245,1.0,6.0,62,0.00,,,0.31,,2013-05-29 18:01:00,
2013-05-29 13:13:00,78.0,63.0,29.90,WSW,255,0.0,5.0,61,0.00,,,0.31,,2013-05-29 18:13:00,
2013-05-29 13:22:00,78.0,63.0,29.90,WSW,255,0.0,5.0,61,0.00,,,0.31,,2013-05-29 18:22:00,
2013-05-29 13:32:00,79.0,63.0,29.89,SW,228,0.0,4.0,59,0.00,,,0.31,,2013-05-29 18:32:00,
2013-05-29 13:42:00,79.0,63.0,29.89,SW,228,0.0,4.0,59,0.00,,,0.31,,2013-05-29 18:42:00,
2013-05-29 13:52:00,80.0,64.0,29.90,South,178,3.0,9.0,58,0.00,,,0.31,,2013-05-29 18:52:00,
2013-05-29 14:02:00,80.0,64.0,29.90,SSW,193,1.0,7.0,59,0.00,,,0.31,,2013-05-29 19:02:00,
2013-05-29 14:11:00,80.0,64.0,29.90,SSE,148,4.0,9.0,59,0.00,,,0.31,,2013-05-29 19:11:00,
2013-05-29 14:21:00,80.0,64.0,29.90,SSE,148,4.0,9.0,59,0.00,,,0.31,,2013-05-29 19:21:00,
2013-05-29 14:32:00,81.0,67.0,29.90,SSW,194,1.0,8.0,62,0.00,,,0.31,,2013-05-29 19:32:00,
2013-05-29 14:44:00,80.0,65.0,29.91,WSW,256,2.0,11.0,61,0.00,,,0.31,,2013-05-29 19:44:00,
2013-05-29 14:53:00,80.0,65.0,29.91,WSW,256,2.0,11.0,61,0.00,,,0.31,,2013-05-29 19:53:00,
2013-05-29 15:02:00,80.0,65.0,29.90,ENE,62,1.0,6.0,60,0.00,,,0.31,,2013-05-29 20:02:00,
2013-05-29 15:11:00,80.0,65.0,29.90,ENE,62,1.0,6.0,60,0.00,,,0.31,,2013-05-29 20:11:00,
2013-05-29 15:22:00,81.0,67.0,29.90,NW,311,1.0,8.0,63,0.00,,,0.31,,2013-05-29 20:22:00,
2013-05-29 15:33:00,81.0,65.0,29.89,WSW,240,6.0,13.0,59,0.00,,,0.31,,2013-05-29 20:33:00,
2013-05-29 15:42:00,81.0,65.0,29.89,WSW,240,6.0,13.0,59,0.00,,,0.31,,2013-05-29 20:42:00,
2013-05-29 15:52:00,82.0,67.0,29.88,SE,146,0.0,6.0,60,0.00,,,0.31,,2013-05-29 20:52:00,
2013-05-29 16:02:00,82.0,66.0,29.88,East,86,2.0,6.0,58,0.00,,,0.31,,2013-05-29 21:02:00,
2013-05-29 16:12:00,82.0,66.0,29.88,East,86,2.0,6.0,58,0.00,,,0.31,,2013-05-29 21:12:00,
2013-05-29 16:22:00,82.0,65.0,29.88,SSE,164,0.0,10.0,57,0.00,,,0.31,,2013-05-29 21:22:00,
2013-05-29 16:33:00,82.0,66.0,29.88,SSE,166,4.0,9.0,58,0.00,,,0.31,,2013-05-29 21:33:00,
2013-05-29 16:43:00,82.0,66.0,29.88,SSE,166,4.0,9.0,58,0.00,,,0.31,,2013-05-29 21:43:00,
2013-05-29 16:53:00,81.0,66.0,29.87,SW,221,4.0,12.0,60,0.00,,,0.31,,2013-05-29 21:53:00,
2013-05-29 17:03:00,81.0,67.0,29.86,ESE,118,3.0,10.0,62,0.00,,,0.31,,2013-05-29 22:03:00,
2013-05-29 17:12:00,81.0,67.0,29.86,ESE,118,3.0,10.0,62,0.00,,,0.31,,2013-05-29 22:12:00,
2013-05-29 17:23:00,80.0,66.0,29.86,SSE,155,5.0,14.0,63,0.00,,,0.31,,2013-05-29 22:23:00,
2013-05-29 17:33:00,79.0,66.0,29.86,SSW,197,3.0,11.0,65,0.00,,,0.31,,2013-05-29 22:33:00,
2013-05-29 17:42:00,78.0,67.0,29.86,South,176,1.0,10.0,68,0.00,,,0.31,,2013-05-29 22:42:00,
2013-05-29 17:53:00,78.0,67.0,29.86,South,176,1.0,10.0,68,0.00,,,0.31,,2013-05-29 22:53:00,
2013-05-29 18:02:00,77.0,66.0,29.85,ENE,78,1.0,9.0,68,0.00,,,0.31,,2013-05-29 23:02:00,
2013-05-29 18:12:00,77.0,66.0,29.85,ENE,78,1.0,9.0,68,0.00,,,0.31,,2013-05-29 23:12:00,
2013-05-29 18:21:00,76.0,66.0,29.85,ESE,104,0.0,9.0,71,0.00,,,0.31,,2013-05-29 23:21:00,
2013-05-29 18:33:00,76.0,66.0,29.85,ESE,104,0.0,9.0,71,0.00,,,0.31,,2013-05-29 23:33:00,
2013-05-29 18:42:00,75.0,66.0,29.86,SE,146,2.0,8.0,73,0.00,,,0.31,,2013-05-29 23:42:00,
2013-05-29 18:53:00,75.0,66.0,29.86,SE,146,2.0,8.0,73,0.00,,,0.31,,2013-05-29 23:53:00,
2013-05-29 19:01:00,74.0,65.0,29.87,ESE,113,3.0,10.0,74,0.00,,,0.31,,2013-05-30 00:01:00,
2013-05-29 19:11:00,74.0,65.0,29.87,ESE,113,3.0,10.0,74,0.00,,,0.31,,2013-05-30 00:11:00,
2013-05-29 19:21:00,73.0,65.0,29.87,SE,135,0.0,6.0,76,0.00,,,0.31,,2013-05-30 00:21:00,
2013-05-29 19:31:00,73.0,65.0,29.88,South,186,0.0,6.0,76,0.00,,,0.31,,2013-05-30 00:31:00,
2013-05-29 19:42:00,73.0,65.0,29.88,South,186,0.0,6.0,76,0.00,,,0.31,,2013-05-30 00:42:00,
2013-05-29 19:52:00,72.0,65.0,29.87,East,89,0.0,6.0,78,0.00,,,0.31,,2013-05-30 00:52:00,
2013-05-29 20:01:00,72.0,65.0,29.88,SSE,158,1.0,9.0,79,0.00,,,0.31,,2013-05-30 01:01:00,
2013-05-29 20:11:00,72.0,65.0,29.88,SSE,158,1.0,9.0,79,0.00,,,0.31,,2013-05-30 01:11:00,
2013-05-29 20:21:00,71.0,65.0,29.87,ESE,120,0.0,8.0,81,0.00,,,0.31,,2013-05-30 01:21:00,
2013-05-29 20:32:00,71.0,65.0,29.88,SE,141,3.0,7.0,82,0.00,,,0.31,,2013-05-30 01:32:00,
2013-05-29 20:41:00,71.0,65.0,29.88,SE,141,3.0,7.0,82,0.00,,,0.31,,2013-05-30 01:41:00,
2013-05-29 20:52:00,70.0,65.0,29.86,SE,142,0.0,4.0,84,0.00,,,0.31,,2013-05-30 01:52:00,
2013-05-29 21:01:00,70.0,65.0,29.86,SSE,150,1.0,6.0,84,0.00,,,0.31,,2013-05-30 02:01:00,
2013-05-29 21:11:00,70.0,65.0,29.86,SSE,150,1.0,6.0,84,0.00,,,0.31,,2013-05-30 02:11:00,
2013-05-29 21:21:00,69.0,64.0,29.85,SE,138,0.0,2.0,85,0.00,,,0.31,,2013-05-30 02:21:00,
2013-05-29 21:32:00,69.0,65.0,29.86,SSE,167,0.0,0.0,86,0.00,,,0.31,,2013-05-30 02:32:00,
2013-05-29 21:42:00,69.0,65.0,29.86,SSE,167,0.0,0.0,86,0.00,,,0.31,,2013-05-30 02:42:00,
2013-05-29 21:52:00,69.0,65.0,29.86,SSE,167,0.0,0.0,86,0.00,,,0.31,,2013-05-30 02:52:00,
2013-05-29 22:01:00,68.0,64.0,29.86,SSE,156,0.0,1.0,87,0.00,,,0.31,,2013-05-30 03:01:00,
2013-05-29 22:11:00,68.0,64.0,29.87,SE,146,0.0,0.0,88,0.00,,,0.06,,2013-05-30 03:11:00,
2013-05-29 22:21:00,68.0,64.0,29.87,SE,146,0.0,0.0,88,0.00,,,0.06,,2013-05-30 03:21:00,
2013-05-29 22:33:00,67.0,64.0,29.87,SE,146,0.0,0.0,89,0.00,,,0.06,,2013-05-30 03:33:00,
2013-05-29 22:43:00,67.0,64.0,29.87,SE,146,0.0,0.0,89,0.00,,,0.06,,2013-05-30 03:43:00,
2013-05-29 22:53:00,67.0,64.0,29.88,SSE,158,0.0,0.0,89,0.00,,,0.06,,2013-05-30 03:53:00,
2013-05-29 23:02:00,68.0,65.0,29.88,SSE,156,0.0,0.0,89,0.00,,,0.06,,2013-05-30 04:02:00,
2013-05-29 23:12:00,68.0,65.0,29.88,SSE,156,0.0,0.0,89,0.00,,,0.06,,2013-05-30 04:12:00,
2013-05-29 23:23:00,69.0,65.0,29.89,South,170,0.0,0.0,87,0.00,,,0.00,,2013-05-30 04:23:00,
2013-05-29 23:33:00,69.0,65.0,29.89,SE,145,0.0,0.0,86,0.00,,,0.00,,2013-05-30 04:33:00,
2013-05-29 23:42:00,69.0,65.0,29.89,SE,145,0.0,0.0,86,0.00,,,0.00,,2013-05-30 04:42:00,
2013-05-29 23:53:00,70.0,65.0,29.89,South,172,0.0,2.0,84,0.00,,,0.00,,2013-05-30 04:53:00,